Brno, Czech Republic

6:00 PM CEST on April 24, 2017 (GMT +0200)
Brno

Weather History for LKTB - March, 2013

Change the Weather History Date:

Sunday, March 24, 2013

  Actual Average Record
Temperature  
Mean Temperature 24 °F -  
Max Temperature 32 °F 56 °F - ()
Min Temperature 17 °F 38 °F - ()
Degree Days  
Heating Degree Days 40    
Moisture  
Dew Point 5 °F    
Average Humidity 43    
Maximum Humidity 58    
Minimum Humidity 21    
Precipitation  
Precipitation 0.00 in 0.04 in - ()
Sea Level Pressure  
Sea Level Pressure 30.11 in    
Wind  
Wind Speed 19 mph ()    
Max Wind Speed 25 mph    
Max Gust Speed 32 mph    
Visibility 8.4 miles    
Events      
T = Trace of Precipitation, MM = Missing Value Source: Averaged Metar Reports

Daily Weather History Graph

Daily Weather History Graph

Search for Another Location

Airport or City:

Trip Planner

Search our weather history database for the weather conditions in past years. The results will help you decide how hot, cold, wet, or windy it might be!

Date:

Astronomy

Mar. 24, 2013 Rise Set
Actual Time 5:47 AM CET 6:12 PM CET
Civil Twilight 5:15 AM CET 6:44 PM CET
Nautical Twilight 4:38 AM CET 7:21 PM CET
Astronomical Twilight 3:59 AM CET 8:01 PM CET
Moon 3:09 PM CET 4:02 AM CET
Length of Visible Light 13h 28m
Length of Day
12h 24m
Waxing Gibbous, 90% of the Moon is Illuminated
Mar 24
Waxing Gibbous
Mar 27
Full
Apr 3
Last Quarter
Apr 10
New
Apr 18
First Quarter

Hourly Weather History & Observations

Time (CET) Temp. Windchill Dew Point Humidity Pressure Visibility Wind Dir Wind Speed Gust Speed Precip Events Conditions
12:00 AM 19.4 °F 3.2 °F 5.0 °F 54% 30.15 in - NE 20.7 mph - N/A   Clear
12:30 AM 17.6 °F 0.9 °F 5.0 °F 58% 30.15 in - NE 20.7 mph - N/A   Clear
1:00 AM 18 °F - 1 °F 31% 30.24 in 16 mi NE 22.4 mph - -   Scattered Clouds
1:00 AM 17.6 °F 1.3 °F 3.2 °F 53% 30.15 in - NE 19.6 mph - N/A   Clear
1:30 AM 17.6 °F 0.9 °F 3.2 °F 53% 30.15 in - NE 20.7 mph - N/A   Clear
2:00 AM 17.6 °F 0.5 °F 3.2 °F 53% 30.15 in - NE 21.9 mph - N/A   Clear
2:30 AM 17.6 °F 0.5 °F 1.4 °F 49% 30.12 in - NE 21.9 mph - N/A   Clear
3:00 AM 17.6 °F 1.3 °F 1.4 °F 49% 30.12 in - NE 19.6 mph - N/A   Clear
3:32 AM 17.6 °F 1.3 °F 1.4 °F 49% 30.12 in - NE 19.6 mph - N/A   Clear
3:43 AM 17.6 °F 1.3 °F 1.4 °F 49% 30.12 in - NE 19.6 mph 31.1 mph N/A   Clear
4:00 AM 17.6 °F 0.9 °F 1.4 °F 49% 30.12 in - NE 20.7 mph 32.2 mph N/A   Clear
4:30 AM 17.6 °F 1.7 °F -0.4 °F 45% 30.12 in - NE 18.4 mph - N/A   Clear
5:00 AM 17.6 °F 1.3 °F -0.4 °F 45% 30.12 in - NE 19.6 mph - N/A   Clear
5:30 AM 17.6 °F 2.7 °F -0.4 °F 45% 30.12 in - NNE 16.1 mph - N/A   Clear
6:00 AM 17.6 °F 2.2 °F -0.4 °F 45% 30.12 in - NE 17.3 mph - N/A   Clear
6:30 AM 17.6 °F 0.9 °F -0.4 °F 45% 30.12 in - NE 20.7 mph - N/A   Clear
7:00 AM 19 °F - -4 °F 21% 30.23 in 12 mi NE 22.4 mph - -   Mostly Cloudy
7:00 AM 19.4 °F 2.8 °F -0.4 °F 42% 30.15 in - NE 21.9 mph - N/A   Clear
7:30 AM 19.4 °F 2.1 °F -0.4 °F 42% 30.12 in - NE 24.2 mph - N/A   Clear
8:00 AM 19.4 °F 2.5 °F 1.4 °F 46% 30.15 in - ENE 23.0 mph - N/A   Clear
8:30 AM 21.2 °F 4.5 °F 3.2 °F 46% 30.15 in - ENE 24.2 mph - N/A   Clear
9:00 AM 23.0 °F 6.6 °F 3.2 °F 43% 30.15 in - ENE 25.3 mph - N/A   Clear
9:30 AM 23.0 °F 6.9 °F 3.2 °F 43% 30.15 in - ENE 24.2 mph - N/A   Clear
10:00 AM 24.8 °F 9.3 °F 3.2 °F 40% 30.12 in - ENE 24.2 mph - N/A   Clear
10:30 AM 26.6 °F 12.7 °F 3.2 °F 37% 30.12 in 6.2 mi ENE 20.7 mph - N/A   Scattered Clouds
11:00 AM 26.6 °F 12.7 °F 5.0 °F 40% 30.12 in 6.2 mi ENE 20.7 mph - N/A   Mostly Cloudy
11:30 AM 26.6 °F 12.7 °F 5.0 °F 40% 30.12 in 6.2 mi ENE 20.7 mph - N/A   Mostly Cloudy
12:00 PM 26.6 °F 12.7 °F 5.0 °F 40% 30.12 in 6.2 mi ENE 20.7 mph - N/A   Mostly Cloudy
12:30 PM 28.4 °F 15.4 °F 6.8 °F 40% 30.12 in 6.2 mi ENE 19.6 mph - N/A   Mostly Cloudy
1:00 PM 31 °F - 6 °F 21% 30.17 in 12 mi NE 20.1 mph - -   Mostly Cloudy
1:00 PM 30.2 °F 17.4 °F 8.6 °F 40% 30.09 in 6.2 mi ENE 20.7 mph - N/A   Partly Cloudy
1:30 PM 30.2 °F 17.8 °F 10.4 °F 44% 30.09 in 6.2 mi NE 19.6 mph - N/A   Mostly Cloudy
2:00 PM 32.0 °F 21.2 °F 10.4 °F 41% 30.09 in 6.2 mi ENE 16.1 mph - N/A   Mostly Cloudy
2:30 PM 32.0 °F 21.2 °F 6.8 °F 35% 30.09 in 6.2 mi ENE 16.1 mph - N/A   Mostly Cloudy
3:00 PM 32.0 °F 21.6 °F 5.0 °F 32% 30.06 in 6.2 mi NE 15.0 mph - N/A   Scattered Clouds
3:30 PM 32.0 °F 21.2 °F 5.0 °F 32% 30.06 in - ENE 16.1 mph - N/A   Clear
4:00 PM 32.0 °F 20.5 °F 5.0 °F 32% 30.06 in - ENE 18.4 mph - N/A   Clear
4:30 PM 32.0 °F 20.8 °F 8.6 °F 38% 30.06 in - ENE 17.3 mph - N/A   Clear
5:00 PM 30.2 °F 17.8 °F 8.6 °F 40% 30.06 in - ENE 19.6 mph - N/A   Clear
5:30 PM 30.2 °F 18.5 °F 8.6 °F 40% 30.06 in - ENE 17.3 mph - N/A   Clear
6:00 PM 30.2 °F 18.1 °F 10.4 °F 44% 30.06 in - ENE 18.4 mph - N/A   Clear
6:30 PM 28.4 °F 16.2 °F 8.6 °F 43% 30.06 in - ENE 17.3 mph - N/A   Clear
7:00 PM 29 °F - 5 °F 21% 30.15 in 16 mi ENE 20.1 mph - -   Mostly Cloudy
7:00 PM 28.4 °F 15.8 °F 8.6 °F 43% 30.06 in - ENE 18.4 mph - N/A   Clear
7:30 PM 28.4 °F 15.4 °F 6.8 °F 40% 30.09 in - ENE 19.6 mph - N/A   Clear
8:00 PM 28.4 °F 15.1 °F 6.8 °F 40% 30.09 in - ENE 20.7 mph - N/A   Clear
8:11 PM 26.6 °F 13.4 °F 6.8 °F 43% 30.09 in - ENE 18.4 mph 29.9 mph N/A   Clear
8:30 PM 26.6 °F 13.4 °F 6.8 °F 43% 30.09 in - ENE 18.4 mph 29.9 mph N/A   Clear
9:00 PM 26.6 °F 12.7 °F 6.8 °F 43% 30.09 in - ENE 20.7 mph - N/A   Clear
9:30 PM 26.6 °F 12.7 °F 8.6 °F 47% 30.09 in - ENE 20.7 mph - N/A   Clear
10:00 PM 24.8 °F 10.3 °F 8.6 °F 50% 30.09 in - ENE 20.7 mph - N/A   Clear
10:30 PM 24.8 °F 10.7 °F 8.6 °F 50% 30.09 in - ENE 19.6 mph - N/A   Clear
11:00 PM 24.8 °F 10.7 °F 10.4 °F 54% 30.09 in - ENE 19.6 mph - N/A   Clear
11:30 PM 24.8 °F 10.3 °F 10.4 °F 54% 30.06 in - NE 20.7 mph - N/A   Clear